Theta_e
300 300 300 301 302 302 301 301 302 302 303 303 303 303 304 305 306 307 304 312 301 294 294 299 299 296 294 293 289 295 294 297 296 291 292 291 289 295 295 295 294 291 292 294 296 292 288 305 304 299 306 311 309 308
299 300 301 301 302 302 302 302 302 302 303 303 303 303 304 305 306 307 302 311 307 298 297 302 302 304 301 301 297 299 296 297 298 293 295 294 291 297 297 291 301 294 298 298 298 297 309 311 310 312 312 308 307 307
300 300 301 302 302 302 302 302 302 302 303 303 303 304 304 305 306 305 303 307 304 295 296 298 300 305 308 308 310 297 300 303 302 306 300 296 291 299 295 296 298 301 305 300 300 302 305 307 309 309 309 308 308 308
300 300 301 301 302 302 302 302 302 302 302 304 304 304 304 305 306 306 304 307 300 295 289 296 306 303 308 310 309 309 306 308 308 306 300 297 294 301 298 300 299 301 302 301 300 303 303 305 307 308 308 308 306 306
299 300 300 301 302 302 302 302 303 303 303 303 304 304 305 305 306 307 310 305 305 295 290 294 302 303 306 309 308 308 307 306 304 300 298 296 300 299 301 301 299 303 301 300 298 304 304 303 308 308 306 305 305 303
299 299 300 300 301 302 302 302 303 303 304 303 304 304 305 306 306 304 298 304 305 303 293 289 300 296 302 305 306 305 306 306 303 303 298 300 303 299 296 295 303 306 308 310 305 307 308 308 307 306 305 304 302 300
299 299 300 300 301 302 302 302 303 303 304 304 305 305 305 306 306 300 298 302 305 304 293 289 291 298 299 303 305 303 307 305 305 302 298 298 299 300 298 294 302 305 307 307 309 308 304 305 302 305 304 302 302 300
299 299 299 300 301 302 301 302 303 304 304 305 305 306 306 306 305 301 307 306 306 299 296 288 291 293 301 298 299 304 302 303 301 299 300 297 299 299 295 299 302 303 305 306 307 307 307 306 305 303 302 301 299 297
299 299 300 301 301 301 301 302 303 304 304 305 305 306 306 305 301 302 306 306 306 300 291 291 289 288 302 299 302 303 302 296 301 295 295 297 295 291 296 299 301 303 304 304 307 307 305 303 302 302 301 300 298 297
299 299 300 300 301 301 301 302 304 304 305 305 306 301 297 302 303 306 303 298 298 299 298 292 297 293 300 298 298 298 301 296 292 294 299 293 293 300 301 303 304 305 306 308 304 301 302 302 301 301 301 301 300 299
299 299 300 300 301 301 301 303 303 305 306 302 297 295 303 307 303 300 294 294 296 293 298 298 299 296 303 295 295 298 296 297 290 293 293 293 292 298 302 303 306 307 307 307 307 306 305 304 302 301 301 301 300 299
299 299 299 300 300 301 301 302 303 304 302 300 300 303 303 300 297 293 293 296 295 291 296 295 296 299 301 302 296 297 292 295 287 298 293 289 296 300 302 303 305 306 307 306 307 305 304 303 303 302 301 301 300 298
299 299 300 300 301 301 302 302 302 303 304 306 300 297 296 296 288 288 286 289 291 294 297 298 296 299 301 300 296 294 290 290 297 292 289 293 301 301 303 304 304 306 306 305 304 305 304 303 303 302 300 301 299 298
299 299 300 300 300 301 301 302 302 303 302 296 292 287 291 289 290 290 291 292 295 297 297 298 296 296 297 295 294 289 293 294 288 287 288 297 301 302 304 305 304 304 305 304 303 303 302 301 301 301 300 300 299 298
299 300 300 301 300 301 301 301 302 305 301 293 293 287 290 294 294 293 296 294 298 300 298 296 297 295 293 292 292 291 288 287 289 288 294 301 304 304 303 304 304 303 303 302 302 300 300 299 298 298 299 299 299 299
299 299 299 300 301 301 300 302 305 306 300 295 294 292 295 292 291 292 295 295 300 300 300 298 293 291 290 292 288 287 288 288 290 295 300 303 304 305 305 305 303 303 302 302 300 298 298 297 297 297 298 298 298 298
299 296 301 301 300 300 302 302 303 297 294 292 293 297 294 293 292 293 297 298 302 298 291 294 287 289 295 290 289 293 291 291 296 298 302 302 304 304 305 304 303 302 301 299 298 298 298 298 298 296 295 296 297 297
296 299 301 300 300 300 302 303 297 294 291 294 293 297 299 297 299 299 301 301 299 297 294 292 295 290 289 287 288 293 296 298 300 300 302 304 304 304 303 303 301 300 299 299 298 298 298 297 296 295 296 296 296 295
298 299 299 299 300 297 295 297 299 290 294 296 297 299 298 301 303 304 303 303 302 302 297 295 292 290 291 294 293 294 294 296 296 300 301 302 303 303 303 302 301 300 299 299 298 297 297 299 297 296 296 296 295 295
298 298 300 301 300 296 293 295 300 293 292 296 298 297 298 298 301 304 302 301 300 297 293 291 291 292 290 292 294 294 296 298 297 295 297 300 302 302 301 300 299 302 299 299 299 296 298 297 297 297 297 296 295 294
299 301 300 302 301 299 296 295 294 295 296 295 298 298 296 299 301 300 300 303 298 296 293 295 294 297 301 301 301 299 299 300 299 300 299 298 299 298 299 299 299 298 297 297 296 296 295 296 297 297 296 296 296 295
299 300 301 302 297 297 296 298 295 297 295 295 296 297 296 295 298 300 302 297 294 296 299 297 297 298 300 301 301 302 304 304 302 300 297 296 297 297 297 297 297 296 296 297 296 296 297 298 298 298 296 294 294 293
299 299 298 298 293 292 290 299 293 295 292 294 296 294 296 298 300 303 296 298 298 301 301 300 299 301 301 304 305 305 305 304 301 301 301 300 300 300 299 298 299 297 297 297 299 298 297 294 295 296 295 295 294 292
296 294 292 292 293 289 295 292 296 294 294 293 293 292 295 299 302 298 293 296 298 300 299 298 299 301 304 303 302 302 303 303 302 301 302 300 298 298 299 299 299 300 300 300 299 298 297 297 293 296 296 295 294 293
288 290 291 285 293 290 289 290 291 292 290 293 291 293 296 300 293 293 293 295 296 297 296 297 299 301 300 301 302 302 303 302 299 298 300 300 299 299 299 300 300 300 301 299 297 297 297 296 297 296 296 295 293 292
285 290 287 290 292 290 291 288 290 291 292 291 293 297 299 296 291 290 293 294 295 297 295 295 294 296 298 303 300 300 300 302 301 298 299 300 301 299 298 297 296 297 301 300 299 297 297 297 297 296 294 292 287 291
284 287 293 297 295 294 292 295 296 295 291 290 292 292 291 287 289 291 296 299 297 300 301 298 296 296 298 302 303 302 303 303 303 301 302 302 302 302 300 298 297 299 302 301 300 299 298 297 296 296 294 293 292 291
290 292 288 293 292 294 291 292 292 290 292 296 294 290 288 289 291 297 298 303 301 301 300 300 299 301 302 303 304 303 303 304 304 304 303 303 303 303 303 302 299 289 298 297 300 300 299 298 297 296 294 292 290 290
290 294 293 290 292 293 293 293 293 296 298 297 294 292 294 299 302 301 301 301 302 300 298 298 299 302 303 303 304 304 303 301 299 296 296 296 297 298 301 300 300 300 296 292 283 291 297 296 296 294 292 291 290 289
291 296 292 291 291 290 296 299 297 299 300 300 300 298 297 299 303 305 301 300 299 297 300 300 298 301 299 299 300 301 302 302 302 300 297 297 297 299 300 299 298 298 298 295 293 291 285 291 289 291 289 289 289 288
295 296 292 293 292 296 299 299 300 300 298 297 298 296 295 298 301 303 302 301 299 299 301 297 298 301 300 300 300 299 299 302 303 303 304 302 300 299 299 298 298 298 298 296 295 293 292 290 290 289 288 288 286 286
294 292 291 290 293 298 299 297 296 293 293 292 292 295 296 294 292 298 302 300 299 298 293 295 296 298 301 302 302 302 293 302 302 301 301 300 299 299 298 299 299 298 296 295 294 292 291 290 289 288 287 286 285 285
291 292 293 293 293 293 296 295 293 291 291 291 293 295 294 293 290 298 302 303 300 298 299 297 296 295 296 296 297 295 293 293 288 285 286 286 288 293 298 298 297 296 294 292 291 291 290 288 286 284 283 282 282 282
Wind_Speed
17 18 19 20 22 21 19 20 22 22 22 23 23 23 22 21 20 12 10 6 2 3 13 8 8 12 10 6 5 11 7 2 3 5 5 4 3 6 12 13 10 6 7 8 5 7 4 4 7 3 12 13 16 18
18 18 18 20 20 19 19 20 22 22 21 22 23 23 22 21 20 17 6 6 3 4 12 19 20 19 15 12 5 6 7 6 4 3 6 2 3 6 12 12 11 6 5 4 5 8 10 15 16 16 15 16 16 17
18 19 19 18 19 19 19 19 21 22 22 22 24 23 22 21 20 15 7 7 4 3 10 5 2 4 5 9 5 4 2 8 7 8 3 3 3 5 5 9 12 6 9 6 9 11 16 14 18 18 18 19 17 17
18 20 20 19 20 20 19 19 22 22 22 22 22 22 22 20 20 18 7 5 1 2 4 3 4 11 13 10 10 10 12 13 11 9 1 3 3 3 5 8 8 6 6 8 17 17 16 18 16 18 16 16 16 15
18 19 20 21 20 20 19 20 21 21 21 23 24 23 22 22 20 14 5 1 2 2 4 9 15 9 15 15 10 3 4 7 6 4 4 4 6 4 5 4 8 7 5 6 6 11 15 10 15 17 17 16 16 16
18 19 20 21 20 21 19 21 22 22 23 25 24 23 22 21 18 5 2 2 2 1 3 4 5 7 16 16 9 5 3 4 3 4 4 3 4 6 2 4 7 14 13 13 9 10 19 18 13 15 17 17 16 15
19 20 20 21 22 20 20 22 24 24 24 24 24 22 20 17 7 2 3 3 5 1 2 4 3 3 6 11 3 4 4 2 1 3 3 4 4 7 4 7 14 10 16 13 7 19 18 19 12 15 18 18 17 16
19 20 20 20 21 20 20 23 24 25 25 24 23 21 16 12 6 4 3 6 3 2 2 3 3 3 5 3 4 2 3 2 2 2 2 3 4 4 5 6 8 10 5 16 10 16 15 16 18 17 16 15 16 14
19 21 21 20 21 20 21 23 25 26 27 26 23 23 5 3 2 2 3 5 2 3 2 2 3 3 2 4 3 2 2 1 0 2 3 2 1 3 4 3 8 7 13 11 19 21 15 17 17 17 16 15 14 13
19 20 21 21 21 20 21 23 24 27 27 25 8 3 2 2 1 6 2 3 5 5 4 3 2 1 2 3 3 3 2 1 2 3 3 1 1 5 4 6 6 8 9 11 20 18 17 14 15 13 12 13 13 13
18 20 20 21 21 21 21 21 24 25 14 5 4 3 7 4 3 3 4 4 3 3 3 2 1 2 3 4 3 3 3 2 2 2 3 3 2 5 9 3 8 8 10 11 9 17 12 10 12 13 13 14 15 13
18 20 20 20 21 21 21 20 20 13 8 9 8 10 6 4 4 5 4 3 2 3 3 4 4 3 3 2 2 3 3 2 1 3 2 3 3 9 12 6 7 8 13 16 17 13 10 14 14 13 12 12 14 13
19 19 19 19 20 20 18 19 19 18 16 3 4 5 3 4 2 2 6 5 4 5 6 6 4 2 2 2 3 2 3 2 2 1 2 3 8 10 9 9 11 13 17 13 17 16 15 13 13 13 13 13 12 11
20 20 20 19 20 16 17 19 19 13 5 2 3 5 3 3 6 5 6 5 4 4 6 7 5 4 4 4 3 3 3 3 3 2 4 4 10 11 9 14 11 12 19 14 15 14 15 14 13 13 12 11 11 10
20 20 22 17 10 16 18 20 21 8 4 3 3 3 3 4 3 4 7 3 2 4 5 3 3 3 2 2 2 3 3 3 6 3 2 5 8 9 11 15 15 14 13 14 12 12 13 14 13 12 11 10 10 9
19 21 2 8 12 18 21 18 10 3 2 3 2 3 5 2 2 3 4 5 3 3 3 2 2 3 3 2 2 3 5 5 3 4 3 5 9 10 10 11 13 12 13 11 12 13 13 13 13 12 11 10 10 10
18 5 8 11 17 21 18 5 3 3 2 3 3 4 3 4 3 3 4 2 0 2 2 3 2 1 2 2 3 1 4 3 3 3 5 4 8 8 11 11 12 12 12 13 13 13 14 13 12 11 12 11 11 10
11 9 9 16 15 13 4 4 2 3 5 6 5 2 5 4 5 3 3 3 2 1 2 3 5 3 2 2 3 3 5 3 2 1 4 5 9 4 8 11 11 12 13 12 13 13 12 11 11 9 10 10 9 8
12 12 16 18 9 4 4 3 2 3 5 2 2 3 4 2 4 4 1 1 3 0 3 4 4 3 2 2 3 4 2 2 1 3 7 6 4 6 9 9 12 13 12 12 11 8 8 9 8 8 7 7 6 6
17 19 14 9 4 3 5 3 2 3 5 4 5 4 4 4 2 3 4 3 3 2 1 2 2 3 2 3 3 2 2 3 5 6 5 5 7 8 9 10 9 10 10 10 9 7 8 7 7 5 5 7 6 5
8 3 5 3 3 5 4 3 3 3 4 5 5 5 5 3 3 1 2 4 1 4 3 1 1 4 5 3 4 7 9 10 7 6 7 8 7 8 7 9 10 9 8 8 7 6 6 6 7 5 5 6 8 7
2 6 3 4 4 4 5 3 4 4 4 5 6 4 4 4 2 1 4 1 3 2 0 2 1 2 2 4 10 11 9 6 7 9 10 11 11 10 10 9 8 7 8 7 8 6 7 6 6 6 8 6 7 5
7 3 3 4 3 1 6 3 4 4 4 2 3 3 3 1 1 2 3 1 2 2 5 4 2 3 4 7 7 7 6 11 9 7 8 8 8 9 9 9 9 8 8 7 6 7 7 8 8 7 6 6 6 5
2 3 4 3 5 4 2 4 3 4 3 4 4 3 1 0 1 2 3 3 2 3 5 6 5 6 5 6 8 7 8 4 5 5 7 8 8 9 9 8 8 7 7 7 8 8 6 6 6 6 6 6 5 5
2 4 4 5 5 4 6 4 5 4 4 3 2 2 3 2 2 2 3 3 3 5 4 4 5 3 4 3 3 4 2 6 4 5 5 6 7 7 5 6 8 8 7 8 7 7 7 6 6 5 4 3 4 3
4 4 4 3 3 5 4 3 2 2 3 1 2 1 2 2 3 4 3 3 3 3 2 3 4 4 5 4 4 5 6 4 5 6 5 5 6 7 8 8 7 5 6 7 7 8 8 6 5 5 6 5 4 2
4 5 4 4 4 5 6 4 5 3 2 1 1 4 3 3 4 3 2 1 1 1 1 1 1 3 6 1 3 5 6 6 7 6 4 4 6 6 7 7 8 6 6 7 7 7 6 5 5 4 4 4 5 1
5 4 4 4 5 4 5 5 3 2 1 1 3 2 2 3 3 2 2 1 1 2 3 0 2 5 5 6 7 5 8 8 6 6 6 7 7 6 8 7 8 12 8 5 3 6 5 4 4 4 3 4 6 4
6 4 3 7 7 4 4 3 1 2 3 3 3 3 2 3 1 0 1 2 2 2 4 1 3 4 7 8 4 7 7 7 9 10 9 7 5 5 5 7 7 8 7 10 14 11 10 7 3 4 4 4 5 4
7 6 4 6 5 4 1 3 2 2 3 4 4 6 3 1 1 2 2 2 1 2 2 3 2 8 6 6 5 7 7 6 5 6 7 6 7 7 6 7 7 7 7 7 8 8 6 7 6 5 4 4 5 4
3 2 6 7 6 3 2 2 1 3 4 4 7 6 6 4 3 2 2 1 1 3 2 1 4 5 5 4 4 6 5 4 3 1 4 8 9 8 7 7 7 6 5 5 6 6 6 6 5 6 4 6 7 1
3 5 4 5 4 3 2 3 2 1 1 2 4 3 2 1 1 2 1 1 3 3 3 2 3 2 6 4 3 4 4 6 7 6 10 9 9 9 8 6 4 5 6 6 5 6 5 5 7 5 3 6 5 4
4 7 7 5 3 4 2 3 3 2 3 3 2 4 4 2 1 3 3 4 3 2 4 3 4 3 5 8 9 9 11 10 12 12 14 12 9 7 6 5 5 6 6 5 5 7 11 12 10 12 12 12 11 10
Wind_Direction
325 326 328 325 325 327 330 331 332 330 328 328 327 328 327 322 323 329 298 322 305 264 287 267 295 287 307 268 317 315 309 308 342 7 14 2 341 297 121 125 127 121 185 201 130 98 94 100 134 53 104 98 91 88
323 325 324 322 324 328 328 328 328 329 327 326 326 325 324 323 325 335 289 324 325 262 280 298 280 272 269 294 272 290 344 328 357 351 2 359 317 302 100 124 120 92 61 39 49 92 77 77 87 99 100 103 95 96
322 322 321 322 321 324 323 323 326 326 325 323 320 321 320 320 321 329 297 304 271 282 283 300 306 346 248 266 250 300 321 324 318 321 265 306 37 320 62 88 94 65 64 127 96 103 98 82 94 89 97 97 94 87
323 323 325 325 321 322 322 322 323 324 322 319 317 319 319 317 315 316 288 307 190 295 283 291 350 356 334 307 294 271 273 294 290 287 331 325 60 18 356 81 82 94 93 93 108 92 99 107 101 107 105 104 101 99
322 320 323 322 324 325 322 322 321 321 319 318 317 317 316 315 312 302 306 69 332 252 303 301 328 11 343 339 316 307 255 301 318 311 23 11 37 352 183 107 65 41 116 133 131 134 109 114 121 119 108 105 103 102
320 321 320 321 325 324 321 320 319 319 316 315 314 314 314 315 314 299 252 144 11 320 296 305 350 317 332 336 331 353 325 297 356 332 29 4 35 341 46 60 86 105 85 103 119 120 130 126 103 109 113 109 105 103
321 319 321 322 324 324 322 320 318 317 315 312 309 308 309 313 296 306 344 350 317 278 260 280 291 329 313 299 306 344 339 28 13 307 55 33 342 325 52 59 97 84 92 80 60 121 118 118 120 111 104 105 106 102
320 318 321 320 323 324 322 320 317 316 313 311 310 308 308 308 269 246 207 235 263 258 255 290 302 301 352 316 329 11 330 14 35 38 72 10 352 308 59 70 53 71 116 117 134 115 120 124 114 114 120 121 117 110
319 319 321 321 323 325 322 319 317 315 313 310 311 301 278 230 234 41 162 187 196 272 287 260 305 342 306 275 255 309 288 200 33 69 68 278 178 33 67 12 100 60 98 162 129 122 132 129 129 134 133 128 118 114
315 319 321 322 322 323 321 320 320 318 312 308 299 247 249 321 164 171 186 225 202 198 220 249 210 261 302 319 332 359 292 290 110 88 152 76 69 86 72 43 63 44 113 122 125 128 141 150 137 136 130 126 123 114
321 320 323 322 321 321 321 325 327 326 298 336 343 311 330 183 240 212 249 211 196 228 186 247 245 13 208 344 349 10 321 335 13 133 137 183 159 123 126 93 108 110 96 77 110 126 133 129 128 121 115 114 113 114
322 320 321 320 320 320 321 325 330 327 341 309 293 289 261 245 241 248 236 191 178 66 39 338 352 22 323 343 327 326 302 56 50 126 208 137 139 131 118 142 82 161 100 112 104 88 106 122 115 109 105 111 107 116
320 317 315 315 318 317 319 323 326 319 301 289 210 236 242 263 307 298 11 20 20 10 9 337 350 1 336 308 299 346 299 327 332 23 81 211 127 120 116 106 114 104 99 88 114 123 120 121 126 126 119 113 124 122
317 315 309 310 314 308 318 321 323 325 291 275 311 291 289 346 15 10 347 358 352 335 330 336 332 16 1 348 354 298 333 313 248 170 46 127 123 125 128 102 109 134 139 142 123 114 116 116 120 115 112 118 120 123
316 311 308 303 308 314 321 318 309 299 270 289 280 301 353 4 13 326 305 307 349 331 322 335 329 23 306 317 324 322 291 272 38 33 74 102 134 109 111 113 117 113 110 112 118 121 110 102 103 107 108 107 109 107
319 305 289 301 321 325 317 310 286 227 251 282 312 309 356 13 301 310 312 310 332 332 314 315 317 279 219 264 203 262 336 25 45 19 45 72 100 110 112 103 119 124 128 123 108 109 114 116 112 110 108 105 104 100
305 227 334 352 337 314 303 286 267 264 296 276 261 210 213 278 254 251 280 269 267 310 307 269 278 283 166 242 202 46 44 55 103 43 54 53 102 97 126 127 129 120 115 111 118 120 111 115 118 115 106 99 93 92
280 286 332 348 336 304 290 218 283 269 260 228 239 273 175 232 243 229 261 214 202 301 273 343 305 294 227 352 33 37 43 14 357 318 103 101 103 122 117 119 126 122 120 127 117 116 122 121 115 112 114 108 105 103
302 309 308 309 314 313 300 272 242 272 279 287 257 261 282 283 246 130 187 134 85 179 284 298 282 11 14 1 346 315 320 261 308 169 112 89 93 131 129 134 124 118 115 114 132 133 138 137 125 138 149 167 132 129
284 277 283 285 264 251 251 244 242 237 276 329 286 295 306 288 296 176 139 212 164 186 247 3 341 340 272 275 245 255 214 133 120 107 134 152 151 146 129 122 121 119 134 143 127 136 117 135 141 149 134 104 120 128
294 31 297 216 209 233 278 292 255 222 288 288 281 303 300 297 282 207 215 171 94 2 44 118 279 294 320 223 129 147 141 135 153 145 133 142 124 108 108 114 147 145 141 139 153 138 161 133 118 118 142 105 80 81
318 307 283 220 252 216 248 245 272 292 268 271 279 266 265 270 280 227 124 62 120 247 63 83 283 312 278 195 174 190 181 178 144 136 144 154 164 158 150 172 147 148 147 152 133 170 123 123 138 132 93 105 107 102
279 262 242 255 273 220 260 230 250 233 259 271 256 242 242 258 142 28 77 35 100 6 68 57 337 312 277 267 236 205 186 181 154 168 165 169 148 144 152 152 164 156 138 132 168 119 97 99 79 100 111 115 108 120
175 259 269 257 209 257 268 233 230 240 252 230 258 250 120 357 146 251 121 71 82 32 44 17 338 307 280 213 205 192 164 198 185 157 160 161 150 153 158 157 154 159 145 134 109 108 134 116 119 151 165 166 183 169
250 238 198 261 249 239 223 235 228 225 254 256 266 319 1 329 249 206 85 90 24 29 12 356 331 349 343 237 170 143 126 142 138 143 159 154 149 129 136 130 113 111 112 116 126 156 134 151 184 158 174 195 158 111
245 221 187 246 228 234 256 273 250 265 279 268 4 307 329 310 274 68 59 18 9 37 18 355 347 359 322 271 179 155 136 142 151 154 134 147 140 144 122 123 122 136 143 148 157 146 167 169 152 161 126 116 65 343
263 253 227 259 275 304 295 306 289 265 269 103 348 11 318 309 40 77 156 312 342 178 151 286 289 295 295 194 271 129 127 137 123 100 229 146 125 130 142 157 161 149 153 152 158 165 165 168 154 162 154 142 118 44
252 283 273 280 251 263 275 283 266 214 108 140 204 234 36 352 48 151 172 155 203 172 102 136 277 283 303 297 267 113 99 104 86 100 88 73 52 59 83 84 77 77 80 39 131 153 165 165 165 142 133 137 119 98
226 231 275 268 259 265 274 266 309 45 0 338 342 356 12 69 127 3 9 189 108 148 148 134 283 273 271 258 209 137 143 154 150 161 154 143 134 111 106 122 129 102 92 79 47 57 64 75 93 131 118 114 103 129
259 222 220 263 251 254 344 4 360 10 332 353 326 302 310 120 261 292 316 295 157 234 149 146 205 238 243 235 182 159 172 181 200 202 217 180 155 139 135 125 119 127 115 110 103 100 91 107 113 106 127 141 124 108
287 261 246 260 282 319 26 333 76 11 342 334 338 313 313 329 320 352 328 359 107 148 126 147 249 275 283 207 232 182 167 149 171 158 143 115 123 130 133 125 120 119 135 140 155 169 148 173 159 144 152 114 98 207
248 240 254 265 263 267 311 6 335 300 351 300 297 251 287 305 228 111 1 203 185 177 127 199 205 45 7 4 106 81 88 97 94 104 112 117 117 124 121 112 130 158 160 161 163 137 185 115 103 128 136 113 137 116
225 255 259 255 247 261 150 198 229 248 206 244 247 252 220 218 219 120 65 62 50 359 118 130 102 97 55 50 63 70 69 71 67 59 58 57 73 110 149 155 129 132 139 129 114 80 58 80 79 77 71 75 66 63